Time,TemperatureF,DewpointF,PressureIn,WindDirection,WindDirectionDegrees,WindSpeedMPH,WindSpeedGustMPH,Humidity,HourlyPrecipIn,Conditions,Clouds,dailyrainin,SoftwareType,DateUTC
2013-04-01 00:00:00,25.7,19.0,25.92,NNE,20,2.0,2.0,77,0.00,,,0.01,weatherlink.com 1.10,2013-04-01 06:00:00,
2013-04-01 00:15:00,25.0,19.0,25.92,NNE,15,0.0,1.0,79,0.00,,,0.00,weatherlink.com 1.10,2013-04-01 06:15:00,
2013-04-01 00:30:00,24.1,19.0,25.93,ENE,58,4.0,5.0,82,0.00,,,0.00,weatherlink.com 1.10,2013-04-01 06:30:00,
2013-04-01 00:45:00,26.3,23.0,25.93,NE,56,7.0,11.0,86,0.00,,,0.00,weatherlink.com 1.10,2013-04-01 06:45:00,
2013-04-01 01:00:00,27.0,23.0,25.93,ENE,67,5.0,9.0,84,0.00,,,0.00,weatherlink.com 1.10,2013-04-01 07:00:00,
2013-04-01 01:15:00,27.8,24.0,25.94,East,79,6.0,7.0,86,0.00,,,0.00,weatherlink.com 1.10,2013-04-01 07:15:00,
2013-04-01 01:30:00,27.8,24.0,25.93,NE,50,9.0,10.0,86,0.00,,,0.00,weatherlink.com 1.10,2013-04-01 07:30:00,
2013-04-01 01:45:00,28.0,25.0,25.93,ENE,64,5.0,6.0,87,0.00,,,0.00,weatherlink.com 1.10,2013-04-01 07:45:00,
2013-04-01 02:00:00,28.0,25.0,25.93,NNE,33,4.0,7.0,87,0.00,,,0.00,weatherlink.com 1.10,2013-04-01 08:00:00,
2013-04-01 02:15:00,28.0,24.0,25.93,ESE,110,4.0,9.0,86,0.00,,,0.00,weatherlink.com 1.10,2013-04-01 08:15:00,
2013-04-01 02:30:00,28.1,25.0,25.93,NE,44,4.0,5.0,86,0.00,,,0.00,weatherlink.com 1.10,2013-04-01 08:30:00,
2013-04-01 02:45:00,28.0,24.0,25.93,NE,35,3.0,6.0,86,0.00,,,0.00,weatherlink.com 1.10,2013-04-01 08:45:00,
2013-04-01 03:00:00,28.0,24.0,25.93,NE,41,6.0,8.0,86,0.00,,,0.00,weatherlink.com 1.10,2013-04-01 09:00:00,
2013-04-01 03:15:00,27.9,24.0,25.92,ENE,71,5.0,6.0,86,0.00,,,0.00,weatherlink.com 1.10,2013-04-01 09:15:00,
2013-04-01 03:30:00,27.9,24.0,25.92,NNE,20,1.0,5.0,86,0.00,,,0.00,weatherlink.com 1.10,2013-04-01 09:30:00,
2013-04-01 03:45:00,27.7,24.0,25.92,NE,46,0.0,6.0,86,0.00,,,0.00,weatherlink.com 1.10,2013-04-01 09:45:00,
2013-04-01 04:00:00,27.8,24.0,25.92,ENE,72,1.0,2.0,86,0.00,,,0.00,weatherlink.com 1.10,2013-04-01 10:00:00,
2013-04-01 04:15:00,27.7,24.0,25.92,East,93,3.0,5.0,87,0.00,,,0.00,weatherlink.com 1.10,2013-04-01 10:15:00,
2013-04-01 04:30:00,27.5,24.0,25.92,ESE,122,2.0,3.0,87,0.00,,,0.00,weatherlink.com 1.10,2013-04-01 10:30:00,
2013-04-01 04:45:00,27.4,24.0,25.92,South,169,1.0,2.0,87,0.00,,,0.00,weatherlink.com 1.10,2013-04-01 10:45:00,
2013-04-01 05:00:00,27.4,24.0,25.91,SW,224,0.0,1.0,87,0.00,,,0.00,weatherlink.com 1.10,2013-04-01 11:00:00,
2013-04-01 05:15:00,27.4,24.0,25.92,SE,129,0.0,1.0,87,0.00,,,0.00,weatherlink.com 1.10,2013-04-01 11:15:00,
2013-04-01 05:30:00,28.1,25.0,25.92,WSW,253,0.0,2.0,86,0.00,,,0.00,weatherlink.com 1.10,2013-04-01 11:30:00,
2013-04-01 05:45:00,27.8,24.0,25.92,West,259,0.0,2.0,85,0.00,,,0.00,weatherlink.com 1.10,2013-04-01 11:45:00,
2013-04-01 06:00:00,26.8,24.0,25.92,West,263,0.0,0.0,87,0.00,,,0.00,weatherlink.com 1.10,2013-04-01 12:00:00,
2013-04-01 06:15:00,27.5,24.0,25.93,WSW,252,3.0,3.0,85,0.00,,,0.00,weatherlink.com 1.10,2013-04-01 12:15:00,
2013-04-01 06:30:00,27.0,23.0,25.93,West,271,3.0,3.0,86,0.00,,,0.00,weatherlink.com 1.10,2013-04-01 12:30:00,
2013-04-01 06:45:00,26.3,23.0,25.93,West,269,3.0,4.0,87,0.00,,,0.00,weatherlink.com 1.10,2013-04-01 12:45:00,
2013-04-01 07:00:00,25.4,22.0,25.93,West,264,2.0,4.0,88,0.00,,,0.00,weatherlink.com 1.10,2013-04-01 13:00:00,
2013-04-01 07:15:00,25.1,22.0,25.94,West,259,1.0,4.0,89,0.00,,,0.00,weatherlink.com 1.10,2013-04-01 13:15:00,
2013-04-01 07:31:00,25.4,23.0,25.93,West,270,2.0,3.0,90,0.00,,,0.00,weatherlink.com 1.10,2013-04-01 13:31:00,
2013-04-01 07:45:00,26.5,24.0,25.93,West,259,1.0,4.0,89,0.00,,,0.00,weatherlink.com 1.10,2013-04-01 13:45:00,
2013-04-01 08:00:00,27.5,24.0,25.93,SSW,207,3.0,5.0,88,0.00,,,0.00,weatherlink.com 1.10,2013-04-01 14:00:00,
2013-04-01 08:15:00,28.8,25.0,25.94,WSW,256,6.0,9.0,86,0.00,,,0.00,weatherlink.com 1.10,2013-04-01 14:15:00,
2013-04-01 08:30:00,29.3,25.0,25.93,SW,229,4.0,7.0,85,0.00,,,0.00,weatherlink.com 1.10,2013-04-01 14:30:00,
2013-04-01 08:45:00,30.0,25.0,25.94,West,259,4.0,8.0,83,0.00,,,0.00,weatherlink.com 1.10,2013-04-01 14:45:00,
2013-04-01 09:01:00,31.1,26.0,25.93,SSW,204,3.0,7.0,81,0.00,,,0.00,weatherlink.com 1.10,2013-04-01 15:01:00,
2013-04-01 09:16:00,31.7,26.0,25.94,SW,214,4.0,8.0,79,0.00,,,0.00,weatherlink.com 1.10,2013-04-01 15:16:00,
2013-04-01 09:46:00,33.7,26.0,25.94,WSW,246,5.0,11.0,74,0.00,,,0.00,weatherlink.com 1.10,2013-04-01 15:46:00,
2013-04-01 10:16:00,36.0,26.0,25.93,West,261,3.0,11.0,67,0.00,,,0.00,weatherlink.com 1.10,2013-04-01 16:16:00,
2013-04-01 10:46:00,40.4,27.0,25.93,SSW,201,2.0,8.0,59,0.00,,,0.00,weatherlink.com 1.10,2013-04-01 16:46:00,
2013-04-01 11:01:00,41.9,27.0,25.92,WSW,240,2.0,8.0,55,0.00,,,0.00,weatherlink.com 1.10,2013-04-01 17:01:00,
2013-04-01 11:16:00,42.6,26.0,25.92,SW,224,0.0,6.0,52,0.00,,,0.00,weatherlink.com 1.10,2013-04-01 17:16:00,
2013-04-01 11:31:00,44.3,26.0,25.92,North,351,2.0,4.0,48,0.00,,,0.00,weatherlink.com 1.10,2013-04-01 17:31:00,
2013-04-01 11:46:00,45.0,25.0,25.91,ENE,75,1.0,5.0,46,0.00,,,0.00,weatherlink.com 1.10,2013-04-01 17:46:00,
2013-04-01 12:01:00,46.3,25.0,25.91,WNW,288,2.0,5.0,44,0.00,,,0.00,weatherlink.com 1.10,2013-04-01 18:01:00,
2013-04-01 12:16:00,45.5,25.0,25.91,WSW,242,2.0,5.0,45,0.00,,,0.00,weatherlink.com 1.10,2013-04-01 18:16:00,
2013-04-01 12:31:00,46.8,25.0,25.90,WNW,288,3.0,8.0,43,0.00,,,0.00,weatherlink.com 1.10,2013-04-01 18:31:00,
2013-04-01 13:01:00,48.7,25.0,25.89,SE,125,6.0,7.0,39,0.00,,,0.00,weatherlink.com 1.10,2013-04-01 19:01:00,
2013-04-01 13:16:00,48.5,26.0,25.88,East,101,3.0,12.0,41,0.00,,,0.00,weatherlink.com 1.10,2013-04-01 19:16:00,
2013-04-01 13:31:00,47.3,24.0,25.88,East,98,2.0,7.0,41,0.00,,,0.00,weatherlink.com 1.10,2013-04-01 19:31:00,
2013-04-01 13:46:00,49.3,24.0,25.87,WNW,293,1.0,12.0,38,0.00,,,0.00,weatherlink.com 1.10,2013-04-01 19:46:00,
2013-04-01 14:01:00,50.9,24.0,25.87,West,276,3.0,6.0,35,0.00,,,0.00,weatherlink.com 1.10,2013-04-01 20:01:00,
2013-04-01 14:17:00,49.8,24.0,25.86,North,354,4.0,9.0,36,0.00,,,0.00,weatherlink.com 1.10,2013-04-01 20:17:00,
2013-04-01 14:32:00,49.5,23.0,25.86,NNE,24,2.0,16.0,36,0.00,,,0.00,weatherlink.com 1.10,2013-04-01 20:32:00,
2013-04-01 14:47:00,50.6,24.0,25.85,ESE,113,1.0,10.0,35,0.00,,,0.00,weatherlink.com 1.10,2013-04-01 20:47:00,
2013-04-01 15:02:00,51.7,23.0,25.85,ESE,123,10.0,14.0,33,0.00,,,0.00,weatherlink.com 1.10,2013-04-01 21:02:00,
2013-04-01 15:17:00,51.2,24.0,25.85,SW,219,1.0,11.0,34,0.00,,,0.00,weatherlink.com 1.10,2013-04-01 21:17:00,
2013-04-01 15:32:00,51.8,23.0,25.84,WSW,250,5.0,12.0,33,0.00,,,0.00,weatherlink.com 1.10,2013-04-01 21:32:00,
2013-04-01 15:47:00,51.6,23.0,25.84,East,82,5.0,11.0,33,0.00,,,0.00,weatherlink.com 1.10,2013-04-01 21:47:00,
2013-04-01 16:02:00,54.2,24.0,25.84,West,259,0.0,7.0,31,0.00,,,0.00,weatherlink.com 1.10,2013-04-01 22:02:00,
2013-04-01 16:17:00,52.2,24.0,25.84,SW,219,8.0,8.0,33,0.00,,,0.00,weatherlink.com 1.10,2013-04-01 22:17:00,
2013-04-01 16:32:00,52.4,24.0,25.83,SE,139,6.0,9.0,33,0.00,,,0.00,weatherlink.com 1.10,2013-04-01 22:32:00,
2013-04-01 16:47:00,52.6,24.0,25.83,SE,146,6.0,10.0,33,0.00,,,0.00,weatherlink.com 1.10,2013-04-01 22:47:00,
2013-04-01 17:02:00,52.6,24.0,25.83,SW,223,1.0,9.0,33,0.00,,,0.00,weatherlink.com 1.10,2013-04-01 23:02:00,
2013-04-01 17:32:00,52.8,24.0,25.83,SSE,162,4.0,8.0,32,0.00,,,0.00,weatherlink.com 1.10,2013-04-01 23:32:00,
2013-04-01 17:47:00,52.4,24.0,25.83,WSW,238,2.0,9.0,33,0.00,,,0.00,weatherlink.com 1.10,2013-04-01 23:47:00,
2013-04-01 18:02:00,52.4,24.0,25.83,SSW,207,4.0,5.0,33,0.00,,,0.00,weatherlink.com 1.10,2013-04-02 00:02:00,
2013-04-01 18:32:00,49.8,24.0,25.83,SSW,212,9.0,11.0,37,0.00,,,0.00,weatherlink.com 1.10,2013-04-02 00:32:00,
2013-04-01 18:47:00,48.4,24.0,25.84,SSW,200,6.0,10.0,39,0.00,,,0.00,weatherlink.com 1.10,2013-04-02 00:47:00,
2013-04-01 19:02:00,46.6,24.0,25.84,SSW,204,6.0,8.0,42,0.00,,,0.00,weatherlink.com 1.10,2013-04-02 01:02:00,
2013-04-01 19:17:00,45.3,24.0,25.84,SSE,165,6.0,8.0,43,0.00,,,0.00,weatherlink.com 1.10,2013-04-02 01:17:00,
2013-04-01 19:32:00,44.0,24.0,25.84,SE,136,4.0,8.0,45,0.00,,,0.00,weatherlink.com 1.10,2013-04-02 01:32:00,
2013-04-01 19:47:00,42.9,24.0,25.84,SSE,167,5.0,7.0,47,0.00,,,0.00,weatherlink.com 1.10,2013-04-02 01:47:00,
2013-04-01 20:02:00,42.5,24.0,25.85,SSW,203,6.0,9.0,49,0.00,,,0.00,weatherlink.com 1.10,2013-04-02 02:02:00,
2013-04-01 20:17:00,41.9,24.0,25.85,South,187,7.0,10.0,50,0.00,,,0.00,weatherlink.com 1.10,2013-04-02 02:17:00,
2013-04-01 20:32:00,40.8,24.0,25.85,SSW,201,7.0,10.0,52,0.00,,,0.00,weatherlink.com 1.10,2013-04-02 02:32:00,
2013-04-01 20:47:00,40.8,24.0,25.86,SW,232,8.0,11.0,52,0.00,,,0.00,weatherlink.com 1.10,2013-04-02 02:47:00,
2013-04-01 21:02:00,41.4,24.0,25.86,SSW,212,10.0,13.0,51,0.00,,,0.00,weatherlink.com 1.10,2013-04-02 03:02:00,
2013-04-01 21:17:00,39.4,24.0,25.87,SSE,159,4.0,9.0,54,0.00,,,0.00,weatherlink.com 1.10,2013-04-02 03:17:00,
2013-04-01 21:32:00,38.7,24.0,25.87,SSE,167,4.0,8.0,56,0.00,,,0.00,weatherlink.com 1.10,2013-04-02 03:32:00,
2013-04-01 21:47:00,37.8,24.0,25.87,SW,215,6.0,8.0,57,0.00,,,0.00,weatherlink.com 1.10,2013-04-02 03:47:00,
2013-04-01 22:02:00,37.2,23.0,25.87,WSW,256,2.0,8.0,58,0.00,,,0.00,weatherlink.com 1.10,2013-04-02 04:02:00,
2013-04-01 22:17:00,36.4,23.0,25.87,West,271,2.0,5.0,59,0.00,,,0.00,weatherlink.com 1.10,2013-04-02 04:17:00,
2013-04-01 22:32:00,36.3,23.0,25.86,West,259,3.0,7.0,60,0.00,,,0.00,weatherlink.com 1.10,2013-04-02 04:32:00,
2013-04-01 22:47:00,35.7,23.0,25.86,SW,221,4.0,5.0,60,0.00,,,0.00,weatherlink.com 1.10,2013-04-02 04:47:00,
2013-04-01 23:02:00,34.3,23.0,25.86,SW,236,5.0,5.0,63,0.00,,,0.00,weatherlink.com 1.10,2013-04-02 05:02:00,
2013-04-01 23:17:00,33.6,23.0,25.86,WSW,238,4.0,6.0,64,0.00,,,0.00,weatherlink.com 1.10,2013-04-02 05:17:00,
2013-04-01 23:32:00,33.9,23.0,25.86,WSW,239,5.0,6.0,65,0.00,,,0.00,weatherlink.com 1.10,2013-04-02 05:32:00,
2013-04-01 23:47:00,33.6,23.0,25.86,WSW,242,6.0,8.0,66,0.00,,,0.00,weatherlink.com 1.10,2013-04-02 05:47:00,